MICROCARB

Last updated on Sun Jun 21 2026 00:02:53 GMT+0000 (Coordinated Universal Time)

1 64899U 25156A 26171.47982279 .00000362 00000+0 65076-4 0 9998 2 64899 97.9830 248.5584 0014993 260.7208 99.2304 14.72328320 48451
UTC large
Height (km)
Speed (km/s)
/
Latitude / Longitude
Inclination (degrees)
Orbital Period (minutes)
Azimuth
Elevation
Range (km)
Doppler Factor

Next 0 passes for location: London (51.5072 / 0.1276)

No passes found over London.
MICROCARB